Williams Field (NZWD)

Aerodrome — Elev 68
Antarctica
S077.52.02.490 E166.03.23.660
Loading chart...

Current Weather

NZWD 100055Z 04006KT 9999 OVC003 M07/M09 A2904 RMK SLP833 GRID21006KT SDF/HDF

Published 1 hours 1 minutes ago

Airport Activity

Loading chart...
Loading chart...

Standard ATC Positions

CallsignRadio Name / Freq / Voice Room / TypeFrequencyVoice RoomType
NZCM_FSS McMurdo Radio
128.700
nzcm_fss
128.700nzcm_fss
NZWD_TWR Williams Field Tower
126.200
nzwd_twr
126.200nzwd_twr
NZIR_TWR Ice Tower
126.200
nzir_twr
126.200nzir_twr
NZWD_TWR Williams Field Tower
126.200
nzwd_twr
126.200nzwd_twr
UNICOM NZZO UNICOM
122.800
unicom_nzzo
122.800unicom_nzzo